Location: Amanico Ergina Village
(37.7824°N, 122.4366°W)
Time: 20:03:50
(UTC+00:00)

Cosmos 1190 Rocket - Pass Details

Date: 29 October 2020
Orbit: 757 x 779 km, 74.1° (Epoch: 24 November)

Event Time Altitude Azimuth Distance (km) Brightness Sun altitude
Rises 13:46:29 0° 204° (SSW) 3,226 7.1 -9.7°
Reaches altitude 10° 13:48:53 10° 207° (SSW) 2,300 6.3 -9.2°
Maximum altitude 13:54:03 65° 290° (WNW) 838 4.0 -8.2°
Drops below altitude 10° 13:59:15 10° 12° (NNE) 2,301 6.5 -7.2°
Sets 14:01:39 0° 16° (NNE) 3,228 7.3 -6.8°
